New Orleans NAS, LA

4:13 PM CST on January 23, 2018 (GMT -0600)
New Orleans Naval Air Station

Weather History for KNBG - December, 2013

Change the Weather History Date:

Sunday, December 15, 2013

  Actual Average Record
Temperature  
Mean Temperature 44 °F -  
Max Temperature 52 °F 61 °F 77 °F (2007)
Min Temperature 37 °F 43 °F 33 °F (1997)
Degree Days  
Heating Degree Days 20    
Moisture  
Dew Point 36 °F    
Average Humidity 69    
Maximum Humidity 89    
Minimum Humidity 52    
Precipitation  
Precipitation 0.00 in - - ()
Sea Level Pressure  
Sea Level Pressure 30.23 in    
Wind  
Wind Speed 8 mph (North)    
Max Wind Speed 14 mph    
Max Gust Speed 23 mph    
Visibility 10 miles    
Events      
Averages and records for this station are not official NWS values.
T = Trace of Precipitation, MM = Missing Value Source: NWS Daily Summary

Daily Weather History Graph

Daily Weather History Graph

Search for Another Location

Airport or City:

Trip Planner

Search our weather history database for the weather conditions in past years. The results will help you decide how hot, cold, wet, or windy it might be!

Date:

Astronomy

Dec. 15, 2013 Rise Set
Actual Time 6:48 AM CST 5:02 PM CST
Civil Twilight 6:21 AM CST 5:28 PM CST
Nautical Twilight 5:52 AM CST 5:58 PM CST
Astronomical Twilight 5:22 AM CST 6:27 PM CST
Moon 4:02 PM CST (12/15) 5:09 AM CST (12/15)
Length of Visible Light 11h 07m
Length of Day
10h 14m
Waxing Gibbous, 98% of the Moon is Illuminated
Dec 15
Waxing Gibbous
Dec 17
Full
Dec 25
Last Quarter
Jan 1
New
Jan 7
First Quarter

Hourly Weather History & Observations

Time (CST) Temp. Windchill Dew Point Humidity Pressure Visibility Wind Dir Wind Speed Gust Speed Precip Events Conditions
12:55 AM 51.1 °F - 42.1 °F 71% 30.10 in 10.0 mi Variable 5.8 mph 17.3 mph N/A   Overcast
1:55 AM 50.0 °F - 41.0 °F 71% 30.11 in 10.0 mi NNW 13.8 mph 21.9 mph N/A   Overcast
2:55 AM 48.9 °F - 37.9 °F 66% 30.13 in 10.0 mi NNW 12.7 mph 23.0 mph N/A   Overcast
3:55 AM 48.0 °F - 39.0 °F 71% 30.14 in 10.0 mi North 11.5 mph 18.4 mph N/A   Overcast
4:55 AM 46.9 °F - 37.9 °F 71% 30.16 in 10.0 mi North 13.8 mph 21.9 mph N/A   Overcast
5:55 AM 46.0 °F 40.6 °F 36.0 °F 68% 30.18 in 10.0 mi North 11.5 mph 23.0 mph N/A   Overcast
6:55 AM 45.0 °F 40.6 °F 34.0 °F 65% 30.21 in 10.0 mi NNW 8.1 mph 18.4 mph N/A   Overcast
7:55 AM 45.0 °F 39.7 °F 33.1 °F 63% 30.23 in 10.0 mi North 10.4 mph 20.7 mph N/A   Mostly Cloudy
8:55 AM 46.0 °F 41.9 °F 34.0 °F 63% 30.25 in 10.0 mi North 8.1 mph 21.9 mph N/A   Mostly Cloudy
9:55 AM 46.9 °F - 35.1 °F 63% 30.27 in 10.0 mi North 9.2 mph 18.4 mph N/A   Mostly Cloudy
10:55 AM 46.9 °F - 35.1 °F 63% 30.27 in 10.0 mi North 6.9 mph 16.1 mph N/A   Mostly Cloudy
11:55 AM 48.0 °F - 35.1 °F 61% 30.26 in 10.0 mi North 10.4 mph 16.1 mph N/A   Mostly Cloudy
12:55 PM 46.9 °F - 34.0 °F 61% 30.25 in 10.0 mi NNE 8.1 mph - N/A   Mostly Cloudy
1:09 PM 48.2 °F - 33.8 °F 58% 30.24 in 10.0 mi North 10.4 mph - N/A   Mostly Cloudy
1:55 PM 50.0 °F - 34.0 °F 54% 30.23 in 10.0 mi North 8.1 mph - N/A   Mostly Cloudy
2:55 PM 52.0 °F - 35.1 °F 53% 30.23 in 10.0 mi NNW 9.2 mph - N/A   Scattered Clouds
3:55 PM 51.1 °F - 34.0 °F 52% 30.23 in 10.0 mi North 9.2 mph - N/A   Partly Cloudy
4:55 PM 48.9 °F - 35.1 °F 59% 30.25 in 10.0 mi North 4.6 mph - N/A   Scattered Clouds
5:55 PM 45.0 °F - 36.0 °F 71% 30.26 in 10.0 mi Calm Calm - N/A   Partly Cloudy
6:55 PM 39.9 °F - 36.0 °F 86% 30.28 in 10.0 mi Calm Calm - N/A   Clear
7:55 PM 41.0 °F 39.0 °F 36.0 °F 82% 30.29 in 10.0 mi NNE 3.5 mph - N/A   Clear
8:55 PM 39.0 °F - 35.1 °F 86% 30.31 in 10.0 mi Calm Calm - N/A   Partly Cloudy
9:55 PM 37.0 °F - 34.0 °F 89% 30.33 in 10.0 mi Calm Calm - N/A   Clear
10:55 PM 37.9 °F 34.4 °F 35.1 °F 89% 30.33 in 9.0 mi North 4.6 mph - N/A   Partly Cloudy
11:55 PM 39.9 °F 36.7 °F 35.1 °F 83% 30.32 in 10.0 mi NE 4.6 mph - N/A   Clear